sat.trackr.live / text

‹ back to catalog

STARLINK-5673

NORAD 55462 · 2023-015P

PAYLOAD ACTIVE UNKNOWN

§ Identity

Operator
Country
US
Launch date
2023-02-02
Launch site
AFETR
Launch vehicle
Mass (kg)
RCS (m²)

Purposes: comms

External: N2YO · Heavens-Above · Gunter

§ Orbital elements

Epoch: 2026-09-20T05:00:22.146624Z

Period
94.27 min
Inclination
43.0026°
Eccentricity
0.0001490
Mean motion
15.27569758 rev/d
Perigee alt
482.1 km
Apogee alt
484.1 km
Semi-major
6,861.2 km
B*
-2.7330e-5
RAAN
309.9720°
Arg perigee
274.1704°
Mean anomaly
85.8978°
Rev number
20,047

§ Raw data

STARLINK-56731 55462U 23015P   26263.20858966 -.00001014  00000+0 -27330-4 0  99922 55462  43.0026 309.9720 0001490 274.1704  85.8978 15.27569758200471

JSON: /api/v1/satellites/55462 · /tle

For live sub-satellite position, see the globe view (requires WebGL).

§ Visibility from observer

Set your observer location to see the next 7 days of passes ≥ 10°. The values pass through the URL so the page stays shareable.

No JS? Fill the form by hand. The geolocation button needs JavaScript.